CW1837 Weather Reports


time (UTC)temp
C
wind
direction
speed
KPH
gust
KPH
rain 1hr
cm
rain 24hr
cm
rain mn
cm
humidity
%
barometer
mb
20260510095126 5 75 6.4 9.7 0.00 0.13 0.00 69 1009.1
20260510094626 5 103 1.6 6.4 0.00 0.13 0.00 69 1009.2
20260510094126 5 99 4.8 9.7 0.00 0.13 0.00 69 1009.1
20260510093626 5 95 1.6 9.7 0.00 0.13 0.00 68 1008.7
20260510093125 5 139 4.8 11.3 0.00 0.13 0.00 68 1008.8
20260510092626 5 81 3.2 11.3 0.00 0.13 0.00 68 1008.8
20260510092126 5 125 3.2 6.4 0.00 0.13 0.00 68 1008.7
20260510091626 5 161 3.2 6.4 0.00 0.13 0.00 68 1008.7
20260510091125 5 84 1.6 11.3 0.00 0.13 0.00 68 1008.7
20260510090626 5 115 1.6 11.3 0.00 0.13 0.00 67 1008.5
20260510090126 5 119 4.8 11.3 0.00 0.13 0.00 67 1008.4
20260510085625 6 126 3.2 9.7 0.00 0.13 0.00 67 1008.4
20260510085125 6 138 4.8 9.7 0.00 0.13 0.00 67 1008.4
20260510084626 6 108 1.6 11.3 0.00 0.13 0.00 67 1008.4
20260510084126 6 123 3.2 12.9 0.00 0.13 0.00 66 1008.6
20260510083626 6 134 3.2 12.9 0.00 0.13 0.00 65 1008.2
20260510083126 6 114 3.2 12.9 0.00 0.13 0.00 65 1008.2
20260510082626 6 111 3.2 12.9 0.00 0.13 0.00 64 1008.4
20260510082126 6 172 1.6 12.9 0.00 0.13 0.00 64 1008.1
20260510081625 6 70 4.8 12.9 0.00 0.13 0.00 64 1008.1
20260510081126 7 116 8.0 12.9 0.00 0.13 0.00 63 1007.9
20260510080625 7 131 3.2 12.9 0.00 0.13 0.00 62 1008.3
20260510080125 7 98 6.4 12.9 0.00 0.13 0.00 62 1008.0
20260510075848 7 96 6.4 14.5 0.00 0.13 0.00 61 1007.7
20260510075124 7 164 4.8 14.5 0.00 0.13 0.00 60 1008.0
20260510074624 7 93 8.0 11.3 0.00 0.13 0.00 60 1007.8
20260510074125 7 140 3.2 6.4 0.00 0.13 0.00 61 1007.8
20260510073625 8 147 3.2 6.4 0.00 0.13 0.00 60 1007.8
20260510073125 8 99 3.2 6.4 0.00 0.13 0.00 60 1007.7
20260510072625 8 131 4.8 6.4 0.00 0.13 0.00 59 1007.8
20260510072346 8 129 3.2 9.7 0.00 0.13 0.00 58 1007.6
20260510071613 8 143 1.6 11.3 0.00 0.13 0.00 58 1007.4
20260510071015 8 111 4.8 12.9 0.00 0.13 0.00 58 1007.5
20260510070515 9 83 4.8 12.9 0.00 0.13 0.00 57 1007.4
20260510070015 9 168 1.6 9.7 0.00 0.13 0.00 59 1007.4
20260510065515 9 96 1.6 6.4 0.00 0.13 0.00 60 1007.3
20260510065015 8 115 3.2 4.8 0.00 0.13 0.00 62 1007.3
20260510064516 9 16 1.6 4.8 0.00 0.13 0.00 62 1007.3
20260510064245 9 78 3.2 6.4 0.00 0.13 0.00 62 1007.4
20260510063515 9 95 1.6 6.4 0.00 0.13 0.00 62 1007.2
20260510063016 9 20 1.6 6.4 0.00 0.13 0.00 62 1007.1
20260510062515 9 84 0.0 4.8 0.00 0.13 0.00 63 1007.2
20260510062015 9 117 4.8 9.7 0.00 0.13 0.00 63 1007.0
20260510061959 9 83 6.4 9.7 0.00 0.13 0.00 64 1006.9
20260510061234 9 65 1.6 4.8 0.00 0.13 0.00 65 1007.0
20260510060515 9 64 0.0 4.8 0.00 0.13 0.00 66 1006.9
20260510060016 9 111 0.0 4.8 0.00 0.13 0.00 65 1006.5
20260510055736 9 121 1.6 6.4 0.00 0.13 0.00 65 1006.7
20260510055240 9 104 4.8 6.4 0.00 0.13 0.00 65 1006.7
20260510054515 9 145 1.6 6.4 0.00 0.13 0.00 64 1006.5
20260510054016 9 115 1.6 6.4 0.00 0.13 0.00 64 1006.4
20260510053516 9 102 1.6 6.4 0.00 0.13 0.00 64 1006.5
20260510053015 9 106 1.6 9.7 0.00 0.13 0.00 64 1006.5
20260510052516 9 85 1.6 14.5 0.00 0.13 0.00 63 1006.6
20260510052454 9 121 1.6 14.5 0.00 0.13 0.00 64 1006.5
20260510051516 9 115 3.2 9.7 0.00 0.13 0.00 64 1006.5
20260510051238 9 133 3.2 9.7 0.00 0.13 0.00 65 1006.3
20260510050516 9 139 1.6 11.3 0.00 0.13 0.00 66 1006.2
20260510050016 10 113 1.6 11.3 0.00 0.13 0.00 66 1006.3
20260510045516 10 95 3.2 9.7 0.00 0.13 0.00 66 1005.9
20260510045238 10 47 3.2 9.7 0.00 0.13 0.00 67 1006.1
20260510044733 10 141 1.6 12.9 0.00 0.13 0.00 68 1005.9
20260510044016 10 134 4.8 12.9 0.00 0.13 0.00 69 1005.9
20260510043516 10 86 6.4 12.9 0.00 0.13 0.00 70 1005.9
20260510043015 10 153 4.8 12.9 0.00 0.13 0.00 71 1005.5
20260510042515 10 116 6.4 9.7 0.00 0.13 0.00 71 1005.6
20260510042016 10 134 1.6 11.3 0.00 0.13 0.00 72 1005.7
20260510041516 10 129 3.2 11.3 0.00 0.13 0.00 73 1005.3
20260510041016 10 115 1.6 6.4 0.00 0.13 0.00 73 1005.4
20260510040516 10 110 3.2 9.7 0.00 0.13 0.00 73 1005.3
20260510040016 10 143 1.6 11.3 0.00 0.13 0.00 74 1005.3
20260510035733 10 154 3.2 11.3 0.00 0.13 0.13 74 1005.3
20260510035015 10 130 8.0 9.7 0.00 0.13 0.13 74 1005.3
20260510034742 10 125 4.8 9.7 0.00 0.13 0.13 74 1005.2
20260510034014 10 125 1.6 6.4 0.00 0.13 0.13 73 1005.0
20260510033514 10 158 3.2 11.3 0.00 0.13 0.13 73 1004.9
20260510033014 10 146 4.8 11.3 0.00 0.13 0.13 72 1004.6
20260510032514 11 161 3.2 11.3 0.00 0.13 0.13 71 1004.9
20260510032013 11 167 4.8 11.3 0.00 0.13 0.13 71 1005.0
20260510031514 11 113 3.2 12.9 0.00 0.13 0.13 71 1005.1
20260510031014 11 120 6.4 12.9 0.00 0.13 0.13 70 1005.3
20260510030952 11 94 4.8 12.9 0.00 0.13 0.13 69 1004.9
20260510030232 11 105 4.8 14.5 0.00 0.13 0.13 68 1005.1
20260510025731 11 134 9.7 17.7 0.00 0.13 0.13 67 1005.0
20260510025014 11 144 9.7 20.9 0.00 0.13 0.13 68 1005.2
20260510024502 11 107 6.4 20.9 0.00 0.13 0.13 67 1004.7
20260510024002 11 128 9.7 20.9 0.00 0.13 0.13 69 1004.8
20260510023501 10 63 9.7 16.1 0.00 0.13 0.13 88 1004.9
20260510023001 10 105 0.0 9.7 0.00 0.13 0.13 92 1004.7
20260510022502 10 168 3.2 9.7 0.00 0.13 0.13 91 1005.0
20260510022002 10 352 0.0 1.6 0.00 0.13 0.13 91 1004.5
20260510021502 10 352 0.0 1.6 0.00 0.13 0.13 91 1004.3
20260510021212 10 50 0.0 0.0 0.00 0.13 0.13 91 1003.9
20260510020450 10 146 0.0 0.0 0.00 0.13 0.13 91 1003.9
20260510020212 10 135 0.0 0.0 0.00 0.13 0.13 91 1004.1
20260510015438 9 135 0.0 1.6 0.00 0.13 0.13 90 1003.8
20260510014938 9 176 0.0 1.6 0.00 0.13 0.13 90 1003.6
20260510014437 9 80 0.0 0.0 0.00 0.13 0.13 90 1003.6
20260510013937 9 80 0.0 0.0 0.00 0.13 0.13 89 1003.3
20260510013438 9 80 0.0 0.0 0.00 0.13 0.13 89 1003.3
20260510012938 9 80 0.0 0.0 0.00 0.13 0.13 89 1003.3
20260510012438 9 80 0.0 0.0 0.00 0.13 0.13 89 1003.5
20260510011938 9 80 0.0 0.0 0.00 0.13 0.13 88 1003.0
20260510011438 10 13 0.0 3.2 0.03 0.13 0.13 88 1003.3
20260510010938 10 50 1.6 3.2 0.03 0.13 0.13 88 1003.0
20260510010438 10 340 0.0 6.4 0.03 0.13 0.13 88 1003.2
20260510005938 10 334 1.6 6.4 0.03 0.13 0.13 87 1002.9
20260510005701 10 330 3.2 4.8 0.03 0.13 0.13 87 1002.8
20260510004938 10 333 1.6 6.4 0.03 0.13 0.13 86 1002.6
20260510004438 10 31 1.6 6.4 0.03 0.13 0.13 86 1002.8
20260510003938 10 57 4.8 4.8 0.03 0.13 0.13 86 1002.9
20260510003438 11 11 1.6 3.2 0.03 0.13 0.13 86 1002.5
20260510003205 11 4 0.0 1.6 0.03 0.13 0.13 85 1002.3
20260510002438 11 17 0.0 6.4 0.03 0.13 0.13 84 1002.4
20260510001938 11 3 0.0 6.4 0.03 0.13 0.13 83 1002.6
20260510001437 11 328 1.6 6.4 0.00 0.10 0.10 83 1002.4
20260510000937 11 41 1.6 4.8 0.00 0.10 0.10 83 1002.4
20260510000440 11 4 3.2 6.4 0.00 0.10 0.10 84 1002.2
20260509235938 11 11 1.6 9.7 0.00 0.10 0.10 83 1001.9
20260509235438 11 75 1.6 9.7 0.00 0.10 0.10 83 1001.9
20260509234938 11 50 1.6 9.7 0.00 0.10 0.10 83 1001.9
20260509234438 11 93 3.2 11.3 0.00 0.10 0.10 82 1001.7
20260509234157 11 97 1.6 14.5 0.00 0.10 0.10 83 1001.6
20260509233438 11 308 1.6 14.5 0.00 0.10 0.10 84 1001.5
20260509232938 11 32 3.2 6.4 0.00 0.10 0.10 84 1001.5
20260509232438 11 306 3.2 9.7 0.00 0.10 0.10 84 1001.2
20260509232204 11 16 0.0 11.3 0.03 0.10 0.10 86 1001.2
20260509231438 11 305 0.0 11.3 0.05 0.10 0.10 85 1001.3
20260509230938 11 45 6.4 9.7 0.08 0.10 0.10 86 1001.3
20260509230438 10 55 3.2 9.7 0.10 0.10 0.10 88 1001.3
20260509230158 10 39 1.6 6.4 0.10 0.10 0.10 89 1001.3
20260509225437 10 307 4.8 9.7 0.10 0.10 0.10 89 1001.6
20260509224937 10 307 3.2 11.3 0.10 0.10 0.10 88 1001.6
20260509224659 10 323 3.2 11.3 0.10 0.10 0.10 88 1001.8
20260509224200 10 304 3.2 6.4 0.10 0.10 0.10 89 1001.9
20260509223438 10 67 4.8 12.9 0.10 0.10 0.10 88 1002.1
20260509222938 10 351 1.6 12.9 0.10 0.10 0.10 88 1001.8
20260509222438 10 314 3.2 12.9 0.10 0.10 0.10 87 1001.7
20260509222157 10 342 3.2 9.7 0.08 0.08 0.08 87 1001.8
20260509221656 10 322 4.8 6.4 0.03 0.03 0.05 85 1002.0
20260509221201 10 30 3.2 11.3 0.03 0.03 0.03 83 1001.8
20260509220438 10 290 4.8 11.3 0.00 0.00 0.00 82 1001.7
20260509215938 10 265 1.6 11.3 0.00 0.00 0.00 81 1001.5
20260509215438 10 324 3.2 12.9 0.00 0.00 0.00 79 1002.0
20260509214938 10 314 4.8 12.9 0.00 0.00 0.00 78 1001.9
20260509214438 10 355 6.4 12.9 0.00 0.00 0.00 77 1001.9
20260509213937 11 327 6.4 17.7 0.00 0.00 0.00 77 1002.0
20260509213437 11 316 3.2 17.7 0.00 0.00 0.00 77 1002.0
20260509213428 11 267 6.4 12.9 0.00 0.00 0.00 77 1002.1
20260509212437 11 293 9.7 16.1 0.00 0.00 0.00 77 1002.3
20260509211937 11 358 6.4 16.1 0.00 0.00 0.00 77 1002.1
20260509211438 11 321 11.3 20.9 0.00 0.00 0.00 77 1001.9
20260509210938 11 329 12.9 24.1 0.00 0.00 0.00 76 1001.8
20260509210438 11 283 12.9 24.1 0.00 0.00 0.00 76 1001.5
20260509205938 11 275 8.0 22.5 0.00 0.00 0.00 77 1001.3
20260509205438 11 293 6.4 22.5 0.00 0.00 0.00 77 1001.6
20260509204938 11 304 6.4 20.9 0.00 0.00 0.00 77 1001.6
20260509204925 11 282 9.7 20.9 0.00 0.00 0.00 77 1001.7
20260509203937 11 311 12.9 17.7 0.00 0.00 0.00 77 1002.0
20260509203437 12 321 9.7 22.5 0.00 0.00 0.00 76 1002.1
20260509202937 12 312 9.7 22.5 0.00 0.00 0.00 76 1002.4
20260509202438 12 326 6.4 16.1 0.00 0.00 0.00 75 1002.4
20260509202204 12 288 9.7 17.7 0.00 0.00 0.00 75 1002.1
20260509201437 12 296 6.4 17.7 0.00 0.00 0.00 75 1002.0
20260509201200 12 317 6.4 17.7 0.00 0.00 0.00 75 1002.0
20260509200658 12 306 12.9 22.5 0.00 0.00 0.00 75 1002.3
20260509195938 12 25 11.3 22.5 0.00 0.00 0.00 74 1002.2
20260509195438 12 259 14.5 22.5 0.00 0.00 0.00 73 1002.4
20260509194937 12 316 12.9 22.5 0.00 0.00 0.00 73 1002.5
20260509194438 13 284 8.0 20.9 0.00 0.00 0.00 73 1002.5
20260509193937 13 301 11.3 20.9 0.00 0.00 0.00 73 1002.6
20260509193437 13 261 11.3 20.9 0.00 0.00 0.00 72 1002.3
20260509193201 13 310 4.8 22.5 0.00 0.00 0.00 74 1002.8
20260509192438 13 352 11.3 22.5 0.00 0.00 0.00 73 1002.9
20260509191938 13 320 12.9 25.7 0.00 0.00 0.00 74 1002.7
20260509191438 13 301 8.0 25.7 0.00 0.00 0.00 73 1002.6
20260509190938 14 311 12.9 22.5 0.00 0.00 0.00 70 1002.7
20260509190437 14 285 8.0 20.9 0.00 0.00 0.00 71 1002.6
20260509185938 14 317 12.9 17.7 0.00 0.00 0.00 71 1002.8
20260509185439 13 321 9.7 17.7 0.00 0.00 0.00 72 1002.7
20260509184938 14 21 9.7 17.7 0.00 0.00 0.00 70 1002.9
20260509184438 14 318 12.9 20.9 0.00 0.00 0.00 71 1003.1
20260509183938 14 323 14.5 20.9 0.00 0.00 0.00 71 1002.9
20260509183438 15 16 4.8 17.7 0.00 0.00 0.00 70 1002.8
20260509182938 15 285 14.5 17.7 0.00 0.00 0.00 69 1002.7
20260509182438 15 321 6.4 17.7 0.00 0.00 0.00 71 1003.2
20260509181937 15 312 11.3 20.9 0.00 0.00 0.00 69 1003.1
20260509181655 15 327 4.8 20.9 0.00 0.00 0.00 70 1003.2
20260509180938 15 351 3.2 20.9 0.00 0.00 0.00 73 1003.3
20260509180438 15 304 9.7 22.5 0.00 0.00 0.00 73 1003.4
20260509175938 15 19 8.0 22.5 0.00 0.00 0.00 72 1003.3
20260509175654 15 318 9.7 17.7 0.00 0.00 0.00 72 1003.3
20260509174938 14 26 6.4 17.7 0.00 0.00 0.00 73 1003.5
20260509174438 14 329 9.7 17.7 0.00 0.00 0.00 73 1003.3
20260509173938 14 305 12.9 14.5 0.00 0.00 0.00 72 1003.7
20260509173438 14 312 4.8 16.1 0.00 0.00 0.00 72 1003.8
20260509173159 14 358 9.7 16.1 0.00 0.00 0.00 73 1003.8
20260509172438 13 308 8.0 17.7 0.00 0.00 0.00 75 1004.2
20260509171938 13 29 9.7 17.7 0.00 0.00 0.00 73 1004.0
20260509171438 13 333 6.4 14.5 0.00 0.00 0.00 74 1003.8
20260509170938 14 30 4.8 14.5 0.00 0.00 0.00 72 1003.9
20260509170438 14 355 9.7 14.5 0.00 0.00 0.00 73 1004.0
20260509165938 14 319 12.9 14.5 0.00 0.00 0.00 72 1004.3
20260509165438 14 349 6.4 14.5 0.00 0.00 0.00 72 1003.9
20260509164938 13 304 11.3 14.5 0.00 0.00 0.00 73 1004.4
20260509164437 13 292 9.7 14.5 0.00 0.00 0.00 75 1004.1
20260509163938 13 347 1.6 16.1 0.00 0.00 0.00 74 1004.5
20260509163438 13 293 4.8 16.1 0.00 0.00 0.00 75 1004.3
20260509162938 13 328 12.9 16.1 0.00 0.00 0.00 75 1004.8
20260509162437 13 313 8.0 12.9 0.00 0.00 0.00 74 1004.5
20260509162158 12 337 4.8 16.1 0.00 0.00 0.00 76 1004.7
20260509161700 12 308 4.8 16.1 0.00 0.00 0.00 75 1004.5
20260509160938 12 332 9.7 14.5 0.00 0.00 0.00 77 1004.7
20260509160659 12 336 3.2 14.5 0.00 0.00 0.00 76 1004.6
20260509155937 12 334 4.8 12.9 0.00 0.00 0.00 75 1004.8
20260509155438 12 1 4.8 12.9 0.00 0.00 0.00 76 1005.1
20260509154938 12 352 6.4 14.5 0.00 0.00 0.00 75 1005.1
20260509154438 12 316 6.4 14.5 0.00 0.00 0.00 75 1005.0
20260509154200 12 302 8.0 14.5 0.00 0.00 0.00 74 1005.0
20260509153437 12 336 6.4 14.5 0.00 0.00 0.00 73 1005.0
20260509152937 12 359 9.7 14.5 0.00 0.00 0.00 74 1004.8
20260509152438 12 323 4.8 12.9 0.00 0.00 0.00 76 1005.0
20260509151926 12 254 1.6 17.7 0.00 0.00 0.00 77 1004.8
20260509151426 12 2 6.4 17.7 0.00 0.00 0.00 76 1004.9
20260509150926 12 290 11.3 16.1 0.00 0.00 0.00 74 1005.2
20260509150426 12 311 12.9 16.1 0.00 0.00 0.00 73 1005.2
20260509145926 12 349 9.7 17.7 0.00 0.00 0.00 75 1005.2
20260509145426 12 22 4.8 17.7 0.00 0.00 0.00 74 1005.4
20260509144926 12 28 8.0 16.1 0.00 0.00 0.00 71 1005.4
20260509144426 12 3 6.4 16.1 0.00 0.00 0.00 73 1005.6
20260509143926 12 1 6.4 14.5 0.00 0.00 0.00 72 1005.6
20260509143425 12 325 3.2 14.5 0.00 0.00 0.00 73 1005.5
20260509143147 12 26 3.2 12.9 0.00 0.00 0.00 72 1005.6
20260509142426 11 359 3.2 12.9 0.00 0.00 0.00 74 1005.7
20260509141925 11 323 8.0 12.9 0.00 0.00 0.00 72 1005.8
20260509141426 11 311 9.7 12.9 0.00 0.00 0.00 72 1005.6
20260509140926 11 13 6.4 12.9 0.00 0.00 0.00 71 1005.6
20260509140426 11 58 6.4 12.9 0.00 0.00 0.00 73 1005.7
20260509135926 11 351 4.8 11.3 0.00 0.00 0.00 72 1005.3
20260509135426 11 15 1.6 11.3 0.00 0.00 0.00 71 1005.6
20260509134926 11 304 4.8 11.3 0.00 0.00 0.00 72 1005.6
20260509134425 11 7 4.8 11.3 0.00 0.00 0.00 70 1005.6
20260509134142 11 300 1.6 11.3 0.00 0.00 0.00 70 1006.0
20260509133642 11 2 8.0 11.3 0.00 0.00 0.00 68 1006.1
20260509132926 11 340 8.0 12.9 0.00 0.00 0.00 70 1005.9
20260509132414 11 312 11.3 12.9 0.00 0.00 0.00 69 1005.9
20260509131914 11 290 4.8 11.3 0.00 0.00 0.00 68 1006.0
20260509131413 11 316 9.7 11.3 0.00 0.00 0.00 68 1005.8
20260509130913 11 12 3.2 9.7 0.00 0.00 0.00 67 1006.1
20260509130413 10 280 1.6 11.3 0.00 0.00 0.00 66 1006.0
20260509125914 10 234 1.6 11.3 0.00 0.00 0.00 65 1005.9
20260509125414 10 318 1.6 6.4 0.00 0.00 0.00 64 1005.9
20260509125132 10 339 6.4 9.7 0.00 0.00 0.00 62 1005.9
20260509124413 10 7 3.2 9.7 0.00 0.00 0.00 65 1005.9
20260509123913 10 279 4.8 11.3 0.00 0.00 0.00 62 1006.1
20260509123414 9 288 3.2 11.3 0.00 0.00 0.00 63 1005.8
20260509122914 9 311 3.2 9.7 0.00 0.00 0.00 63 1005.8
20260509122414 9 290 3.2 6.4 0.00 0.00 0.00 62 1005.9
20260509121914 8 304 1.6 9.7 0.00 0.00 0.00 64 1005.9
20260509121414 8 266 6.4 9.7 0.00 0.00 0.00 63 1005.9
20260509121134 8 302 6.4 9.7 0.00 0.00 0.00 63 1006.1
20260509120414 8 302 1.6 6.4 0.00 0.00 0.00 63 1005.9
20260509115914 8 276 1.6 6.4 0.00 0.00 0.00 62 1006.1
20260509115413 8 278 1.6 6.4 0.00 0.00 0.00 63 1006.1
20260509114914 8 285 3.2 9.7 0.00 0.00 0.00 64 1006.0
20260509114414 7 275 3.2 9.7 0.00 0.00 0.00 63 1005.9
20260509113914 7 290 1.6 9.7 0.00 0.00 0.00 63 1005.8
20260509113414 7 261 4.8 6.4 0.00 0.00 0.00 62 1005.9
20260509112914 7 269 3.2 6.4 0.00 0.00 0.00 64 1005.8
20260509112414 7 264 0.0 6.4 0.00 0.00 0.00 65 1006.1
20260509112135 6 294 1.6 9.7 0.00 0.00 0.00 64 1006.3
20260509111413 6 248 4.8 9.7 0.00 0.00 0.00 65 1006.0
20260509110914 5 235 3.2 6.4 0.00 0.00 0.00 67 1006.3
20260509110414 5 214 1.6 4.8 0.00 0.00 0.00 69 1005.9
20260509105914 5 228 1.6 3.2 0.00 0.00 0.00 70 1006.2
20260509105414 5 245 0.0 4.8 0.00 0.00 0.00 71 1006.4
20260509104914 4 225 1.6 4.8 0.00 0.00 0.00 72 1006.4
20260509104414 4 262 0.0 3.2 0.00 0.00 0.00 72 1006.1
20260509103913 4 224 0.0 3.2 0.00 0.00 0.00 72 1006.4
20260509103413 4 219 1.6 3.2 0.00 0.00 0.00 73 1006.4
20260509103134 4 223 0.0 1.6 0.00 0.00 0.00 73 1006.5
20260509102414 3 220 0.0 1.6 0.00 0.00 0.00 74 1006.1
20260509102138 3 207 1.6 1.6 0.00 0.00 0.00 75 1006.4
20260509101413 3 237 0.0 1.6 0.00 0.00 0.00 76 1006.3
20260509100914 3 262 0.0 1.6 0.00 0.00 0.00 76 1006.4
20260509100640 3 257 0.0 1.6 0.00 0.00 0.00 76 1006.5
20260509095914 3 208 0.0 1.6 0.00 0.00 0.00 76 1006.4
20260509095414 3 190 1.6 1.6 0.00 0.00 0.00 76 1006.6